Weather History for Toulouse, France

Change the Weather History Date:

Tuesday, January 28, 2014

  Actual Average Record
Temperature  
Mean Temperature 46 °F -  
Max Temperature 54 °F 49 °F 62 °F (2002)
Min Temperature 37 °F 35 °F 23 °F (2007)
Degree Days  
Heating Degree Days 20    
Moisture  
Dew Point 36 °F    
Average Humidity 72    
Maximum Humidity 93    
Minimum Humidity 32    
Precipitation  
Precipitation 0.02 in 0.07 in - ()
Sea Level Pressure  
Sea Level Pressure 29.57 in    
Wind  
Wind Speed 12 mph ()    
Max Wind Speed 16 mph    
Max Gust Speed -    
Visibility 7.1 miles    
Events Rain    
Averages and records for this station are not official NWS values.
T = Trace of Precipitation, MM = Missing Value Source: Averaged Metar Reports

Daily Weather History Graph

Daily Weather History Graph

Search for Another Location

Airport:

Trip Planner

Search our weather history database for the weather conditions in past years. The results will help you decide how hot, cold, wet, or windy it might be!

Date:

Astronomy

Jan. 28, 2014 Rise Set
Actual Time 8:15 AM CET 6:00 PM CET
Civil Twilight 7:44 AM CET 6:30 PM CET
Nautical Twilight 7:09 AM CET 7:05 PM CET
Astronomical Twilight 6:36 AM CET 7:39 PM CET
Moon 5:43 AM CET (1/28) 3:32 PM CET (1/28)
Length of Visible Light 10h 46m
Length of Day
9h 44m
Waning Crescent, 9% of the Moon is Illuminated
Jan 28
Waning Crescent
Jan 30
New
Feb 6
First Quarter
Feb 15
Full
Feb 22
Last Quarter

Hourly Weather History & Observations

Time (CET) Temp. Windchill Dew Point Humidity Pressure Visibility Wind Dir Wind Speed Gust Speed Precip Events Conditions
12:00 AM 40 °F - 36 °F 82% 29.73 in 34 mi West 16.1 mph - - Rain Light Rain
12:00 AM 39.2 °F 30.5 °F 35.6 °F 87% 29.71 in 6.2 mi West 16.1 mph - N/A Rain Light Rain
12:30 AM 39.2 °F 30.8 °F 35.6 °F 87% 29.71 in 6.2 mi West 15.0 mph - N/A   Mostly Cloudy
1:00 AM 39 °F - 36 °F 83% 29.75 in 37 mi WSW 13.8 mph - -   Clear
1:00 AM 39.2 °F 31.2 °F 35.6 °F 87% 29.71 in 6.2 mi WSW 13.8 mph - N/A   Mostly Cloudy
1:30 AM 39.2 °F 30.8 °F 35.6 °F 87% 29.71 in 6.2 mi WSW 15.0 mph - N/A   Mostly Cloudy
2:00 AM 38 °F - 35 °F 84% 29.75 in 37 mi WSW 15.0 mph - -   Clear
2:00 AM 37.4 °F 28.5 °F 35.6 °F 93% 29.71 in 6.2 mi WSW 15.0 mph - N/A   Mostly Cloudy
2:30 AM 39.2 °F 31.6 °F 37.4 °F 93% 29.71 in 6.2 mi West 12.7 mph - N/A Rain Light Rain
3:00 AM 39 °F - 36 °F 84% 29.74 in 37 mi WSW 11.5 mph - -   Clear
3:00 AM 39.2 °F 32.0 °F 35.6 °F 87% 29.71 in 6.2 mi WSW 11.5 mph - N/A   Mostly Cloudy
3:30 AM 39.2 °F 32.5 °F 35.6 °F 87% 29.71 in 6.2 mi WSW 10.4 mph - N/A   Mostly Cloudy
4:00 AM 39 °F - 35 °F 82% 29.74 in 37 mi West 16.1 mph - -   Clear
4:00 AM 39.2 °F 30.5 °F 35.6 °F 87% 29.71 in 6.2 mi West 16.1 mph - N/A   Mostly Cloudy
4:30 AM 39.2 °F 31.6 °F 35.6 °F 87% 29.71 in 6.2 mi WSW 12.7 mph - N/A   Mostly Cloudy
5:00 AM 38 °F - 35 °F 85% 29.74 in 37 mi WSW 12.7 mph - -   Clear
5:00 AM 37.4 °F 29.3 °F 35.6 °F 93% 29.71 in 6.2 mi WSW 12.7 mph - N/A   Scattered Clouds
5:30 AM 39.2 °F 31.6 °F 35.6 °F 87% 29.71 in 6.2 mi WSW 12.7 mph - N/A   Mostly Cloudy
6:00 AM 39 °F - 36 °F 84% 29.74 in 31 mi WSW 11.5 mph - -   Clear
6:00 AM 39.2 °F 32.0 °F 35.6 °F 87% 29.71 in 6.2 mi WSW 11.5 mph - N/A   Mostly Cloudy
6:30 AM 39.2 °F 31.2 °F 37.4 °F 93% 29.71 in 6.2 mi WSW 13.8 mph - N/A   Mostly Cloudy
7:00 AM 40 °F - 36 °F 82% 29.73 in 12 mi WSW 12.7 mph - -   Mostly Cloudy
7:00 AM 41.0 °F 33.9 °F 37.4 °F 87% 29.71 in 6.2 mi WSW 12.7 mph - N/A   Overcast
7:30 AM 41.0 °F 33.9 °F 37.4 °F 87% 29.71 in 6.2 mi WSW 12.7 mph - N/A   Mostly Cloudy
8:00 AM 40 °F - 36 °F 80% 29.72 in 19 mi West 16.1 mph - -   Mostly Cloudy
8:00 AM 41.0 °F 32.8 °F 35.6 °F 81% 29.68 in 6.2 mi West 16.1 mph - N/A   Mostly Cloudy
8:30 AM 41.0 °F 32.8 °F 35.6 °F 81% 29.68 in 6.2 mi West 16.1 mph - N/A   Mostly Cloudy
9:00 AM 40 °F - 36 °F 81% 29.71 in 25 mi WSW 13.8 mph - -   Mostly Cloudy
9:00 AM 41.0 °F 33.5 °F 35.6 °F 81% 29.68 in 6.2 mi WSW 13.8 mph - N/A   Mostly Cloudy
9:30 AM 41.0 °F 34.3 °F 37.4 °F 87% 29.68 in 6.2 mi WSW 11.5 mph - N/A   Mostly Cloudy
10:00 AM 43 °F - 38 °F 74% 29.70 in 25 mi WSW 13.8 mph - -   Mostly Cloudy
10:00 AM 42.8 °F 35.8 °F 37.4 °F 81% 29.68 in 6.2 mi WSW 13.8 mph - N/A   Mostly Cloudy
10:30 AM 42.8 °F 36.2 °F 37.4 °F 81% 29.65 in 6.2 mi WSW 12.7 mph - N/A   Overcast
11:00 AM 45 °F - 37 °F 66% 29.68 in 25 mi WSW 13.8 mph - -   Mostly Cloudy
11:00 AM 44.6 °F 38.1 °F 37.4 °F 76% 29.65 in 6.2 mi WSW 13.8 mph - N/A   Mostly Cloudy
11:30 AM 46.4 °F 40.7 °F 37.4 °F 71% 29.62 in 6.2 mi West 12.7 mph - N/A   Mostly Cloudy
12:00 PM 48 °F - 37 °F 54% 29.64 in 25 mi West 11.5 mph - -   Partly Cloudy
12:00 PM 48.2 °F - 37.4 °F 66% 29.62 in 6.2 mi West 11.5 mph - N/A   Unknown
12:30 PM 50.0 °F - 37.4 °F 62% 29.59 in 6.2 mi WSW 12.7 mph - N/A   Unknown
1:00 PM 51 °F - 36 °F 46% 29.58 in 25 mi West 10.4 mph - -   Scattered Clouds
1:00 PM 50.0 °F - 37.4 °F 62% 29.56 in 6.2 mi West 10.4 mph - N/A   Unknown
1:30 PM 51.8 °F - 33.8 °F 50% 29.53 in 6.2 mi WSW 9.2 mph - N/A   Unknown
2:00 PM 51 °F - 35 °F 42% 29.53 in 25 mi SW 8.1 mph - -   Scattered Clouds
2:00 PM 51.8 °F - 35.6 °F 54% 29.50 in 6.2 mi SW 8.1 mph - N/A   Partly Cloudy
2:30 PM 51.8 °F - 33.8 °F 50% 29.47 in 6.2 mi WSW 5.8 mph - N/A   Unknown
3:00 PM 53 °F - 32 °F 32% 29.47 in 25 mi WSW 4.6 mph - -   Scattered Clouds
3:00 PM 53.6 °F - 32.0 °F 44% 29.44 in 6.2 mi WSW 4.6 mph - N/A   Partly Cloudy
3:30 PM 53.6 °F - 32.0 °F 44% 29.44 in 6.2 mi Variable 3.5 mph - N/A   Partly Cloudy
4:00 PM 52 °F - 33 °F 35% 29.43 in 25 mi South 6.9 mph - -   Scattered Clouds
4:00 PM 51.8 °F - 32.0 °F 47% 29.42 in 6.2 mi South 6.9 mph - N/A   Unknown
4:30 PM 50.0 °F - 33.8 °F 54% 29.42 in 6.2 mi SE 11.5 mph - N/A   Unknown
5:00 PM 49 °F - 35 °F 46% 29.43 in 25 mi SSE 8.1 mph - -   Partly Cloudy
5:00 PM 48.2 °F - 33.8 °F 58% 29.42 in 6.2 mi SSE 8.1 mph - N/A   Unknown
5:30 PM 48.2 °F - 35.6 °F 62% 29.42 in 6.2 mi South 11.5 mph - N/A   Unknown
6:00 PM 48 °F - 36 °F 52% 29.43 in 19 mi South 6.9 mph - - Rain Light Rain
6:00 PM 48.2 °F - 35.6 °F 62% 29.42 in 6.2 mi South 6.9 mph - N/A   Mostly Cloudy
6:30 PM 46.4 °F 42.4 °F 33.8 °F 62% 29.39 in 6.2 mi South 8.1 mph - N/A   Mostly Cloudy
7:00 PM 47 °F - 33 °F 47% 29.42 in 19 mi East 2.3 mph - - Rain Light Rain
7:00 PM 48.2 °F - 33.8 °F 58% 29.39 in 6.2 mi Variable 2.3 mph - N/A Rain Light Rain
7:30 PM 46.4 °F 42.9 °F 35.6 °F 66% 29.39 in 6.2 mi SE 6.9 mph - N/A   Mostly Cloudy
8:00 PM 46 °F - 38 °F 65% 29.42 in 10 mi SSE 12.7 mph - - Rain Light Rain
8:00 PM 46.4 °F 40.7 °F 37.4 °F 71% 29.39 in 6.2 mi SSE 12.7 mph - N/A Rain Light Rain
8:30 PM 44.6 °F 38.4 °F 39.2 °F 81% 29.39 in 6.2 mi SSE 12.7 mph - N/A   Mostly Cloudy
9:00 PM 44 °F - 38 °F 73% 29.37 in 37 mi SE 13.8 mph - -   Clear
9:00 PM 44.6 °F 38.1 °F 39.2 °F 81% 29.36 in 6.2 mi SE 13.8 mph - N/A   Unknown
9:30 PM 44.6 °F 38.8 °F 37.4 °F 76% 29.33 in 6.2 mi SSE 11.5 mph - N/A   Unknown
10:00 PM 44 °F - 38 °F 72% 29.36 in 31 mi SSE 8.1 mph - - Rain Light Rain
10:00 PM 44.6 °F 40.2 °F 37.4 °F 76% 29.33 in 6.2 mi SSE 8.1 mph - N/A Rain Light Rain
10:30 PM 44.6 °F 38.8 °F 37.4 °F 76% 29.33 in 6.2 mi SE 11.5 mph - N/A   Overcast
11:00 PM 44 °F - 37 °F 69% 29.38 in 31 mi South 9.2 mph - - Rain Light Rain
11:00 PM 44.6 °F 39.7 °F 37.4 °F 76% 29.36 in 6.2 mi South 9.2 mph - N/A Rain Light Rain
11:30 PM 42.8 °F 35.4 °F 39.2 °F 87% 29.39 in - SW 15.0 mph - N/A Rain Rain